Lapse_Rate
7.4 6.5 6.5 6.5 6.5 6.5 6.5 6.5 6.5 6.5 6.5 6.5 6.5 6.5 6.5 7.0 7.4 7.2 7.5 7.8 8.0 8.3 9.0 9.1 9.3 9.4 9.5 9.5 9.6 9.5 9.5 9.7 9.8 9.8 9.7 9.7 9.7 9.8 9.9 9.7 8.3 8.1 8.2 7.8
6.5 6.5 6.5 6.5 6.5 6.5 6.5 6.5 6.5 6.5 6.5 6.5 6.5 6.5 6.5 6.6 6.9 7.3 7.4 7.6 7.9 8.2 8.7 8.9 9.0 9.2 9.3 9.3 9.5 9.6 9.7 9.7 9.8 10.0 9.9 9.9 9.8 9.9 9.8 9.7 9.0 8.5 7.5 7.5
6.5 6.5 6.6 6.5 6.5 6.5 6.5 6.5 6.5 6.5 6.5 6.5 6.5 6.5 6.5 6.3 5.5 7.4 7.7 7.9 8.1 8.2 8.3 8.6 8.9 9.0 9.3 9.3 9.3 9.4 9.6 9.6 9.7 9.8 10.0 9.9 9.8 9.8 9.8 9.8 9.4 7.8 7.3 8.1
6.5 6.8 6.6 6.5 6.5 6.5 6.5 6.5 6.6 6.5 6.5 6.5 6.5 6.5 6.5 6.5 6.5 6.9 7.3 7.7 7.9 8.2 8.6 8.7 8.8 9.0 9.1 9.2 9.4 9.6 9.6 9.6 9.8 9.9 9.7 9.4 9.4 9.3 9.7 9.7 9.8 7.7 7.8 7.9
6.5 6.5 6.5 6.5 6.5 6.5 6.5 6.5 6.5 6.5 6.5 6.5 6.5 6.5 6.5 6.5 6.5 6.5 6.9 7.3 7.8 8.2 8.5 8.6 8.8 9.1 9.3 9.3 9.3 9.4 9.5 9.5 9.7 9.7 9.6 9.5 9.3 9.6 9.8 9.8 9.2 9.1 7.9 7.5
6.5 7.3 6.6 6.5 6.5 6.5 6.5 6.6 6.5 6.5 6.5 6.5 6.5 6.5 6.6 6.5 6.5 6.5 7.0 7.4 7.7 8.1 8.4 8.7 9.0 9.1 9.1 9.2 9.3 9.3 9.4 9.4 9.6 9.6 9.6 9.5 9.3 9.4 9.4 9.5 9.3 9.7 9.5 8.0
6.5 6.5 6.6 6.9 6.5 6.5 6.5 6.5 6.5 6.5 6.5 6.5 6.5 6.5 6.5 6.5 6.5 6.5 6.7 7.2 7.7 8.1 8.2 8.5 8.7 9.0 8.9 8.9 9.0 8.8 9.2 9.3 9.5 8.9 9.5 9.6 9.5 9.5 9.4 9.5 9.6 9.5 9.7 9.7
6.5 6.5 6.6 6.5 6.5 6.5 6.5 6.5 6.5 6.5 6.5 6.6 6.5 6.5 6.5 6.5 7.1 7.3 7.4 7.6 7.9 8.0 8.2 8.4 8.6 8.8 9.0 8.9 9.0 9.0 9.2 9.3 9.4 8.7 9.2 9.6 9.6 9.6 9.7 9.7 9.7 9.7 9.8 9.9
6.5 6.5 6.5 6.5 6.5 6.5 6.5 6.5 6.5 6.5 6.5 6.5 6.5 6.5 6.5 6.5 6.5 6.9 7.1 7.4 7.6 7.9 8.1 8.4 8.6 8.7 8.8 8.9 9.0 9.0 9.1 9.2 9.3 8.1 9.4 9.5 9.5 9.6 9.2 9.7 9.7 9.8 9.5 9.2
6.5 6.5 6.5 6.5 6.7 6.7 6.5 6.5 6.5 6.5 6.5 6.5 6.5 6.5 6.5 6.5 6.5 6.5 6.7 7.1 7.6 8.0 8.1 8.4 8.6 8.6 8.9 9.0 9.1 9.0 9.1 9.1 8.9 8.9 9.5 9.4 9.5 9.1 9.5 9.7 9.6 9.4 9.0 8.7
6.5 6.5 6.5 6.5 6.5 6.5 6.5 6.5 6.5 6.5 6.5 6.5 6.4 6.5 6.5 6.5 6.5 6.5 6.7 7.3 7.7 7.9 8.2 8.2 8.4 8.7 9.0 9.0 9.1 9.1 9.2 9.3 9.3 9.3 9.5 9.2 9.1 9.6 8.9 9.4 9.2 8.7 8.1 5.6
6.5 6.5 6.5 6.5 6.5 6.5 6.5 6.5 6.5 6.6 6.5 6.5 6.5 6.5 6.5 6.5 6.6 6.9 7.0 7.5 7.9 8.1 8.3 8.5 8.6 8.7 8.9 9.0 9.2 8.9 9.3 9.4 9.4 9.5 9.4 9.3 9.5 9.0 8.3 9.0 8.7 8.0 5.9 5.6
6.5 6.5 6.5 6.5 6.5 6.5 6.5 6.5 6.5 6.5 6.5 6.5 6.5 6.5 6.5 6.7 6.7 7.1 7.1 7.5 7.9 8.0 8.2 8.5 8.6 8.7 8.8 9.1 9.1 9.2 9.3 9.3 9.4 9.5 9.4 9.2 8.9 7.6 8.4 8.8 7.9 6.0 5.3 5.0
6.0 6.5 6.5 6.5 6.5 6.5 6.5 6.5 6.5 6.5 6.5 6.5 6.5 6.5 6.5 6.5 6.5 6.9 7.2 7.5 7.8 8.1 8.2 8.4 8.5 8.6 8.9 9.0 9.0 9.2 9.2 8.8 9.3 9.5 9.3 9.1 9.2 8.8 8.5 7.7 6.2 4.9 4.7 6.2
6.5 6.5 6.5 6.5 6.5 6.5 6.5 6.5 6.5 6.5 6.5 6.5 6.5 6.6 6.5 6.5 6.5 6.8 7.3 7.6 7.7 7.9 8.1 8.3 8.4 8.5 8.7 8.8 8.9 9.1 9.3 9.3 9.5 9.4 9.4 9.2 9.4 8.7 7.0 5.7 5.1 5.2 6.2 6.8
6.5 6.5 6.5 6.5 6.5 6.5 6.5 6.5 6.5 6.5 6.5 6.5 6.5 6.5 6.5 7.0 7.3 7.0 7.2 7.4 7.5 7.8 8.1 8.3 8.5 8.5 8.7 8.8 8.9 9.1 9.2 9.4 9.5 9.4 9.4 9.5 9.0 7.4 6.1 5.0 4.9 5.4 6.4 6.6
6.5 6.5 6.5 6.5 6.5 6.5 6.5 6.5 6.5 6.5 6.5 6.5 6.5 6.5 6.5 6.5 6.6 6.9 7.2 7.4 7.6 7.9 8.1 8.3 8.4 8.6 8.8 8.9 9.1 9.0 9.3 9.5 9.5 9.4 9.5 9.5 8.8 6.4 4.9 5.1 5.6 6.2 6.7 7.5
6.5 6.5 6.6 6.5 6.5 6.5 6.5 6.5 6.5 6.5 6.5 6.5 6.5 6.5 6.6 6.8 7.3 7.5 7.8 7.7 7.8 8.0 8.2 8.4 8.6 8.8 9.0 9.2 9.3 9.4 9.5 9.4 9.4 9.4 9.4 9.4 7.4 5.5 5.6 6.1 7.1 7.3 8.2 9.1
6.7 6.5 6.5 6.5 6.5 6.5 6.5 6.5 6.5 6.5 6.5 6.5 6.5 6.5 6.9 7.3 7.3 7.2 8.1 8.3 8.2 8.3 8.5 8.7 8.9 8.9 9.1 9.1 9.4 9.3 9.4 9.5 9.4 9.3 9.3 8.5 5.9 7.0 8.1 8.3 7.7 8.8 9.4 9.6
6.5 6.5 6.5 6.5 6.5 6.5 6.5 6.5 7.1 6.7 6.5 6.8 7.0 6.6 6.7 7.1 6.5 6.5 7.9 8.3 8.4 8.6 8.7 8.8 9.0 9.1 9.1 9.3 9.3 9.2 9.3 9.3 9.3 9.3 9.2 9.1 9.5 8.9 8.9 8.3 8.9 9.5 9.7 9.7
6.5 6.5 6.5 6.5 6.5 6.5 6.5 6.8 7.3 6.5 6.5 7.2 7.3 7.3 7.3 6.6 7.0 7.9 8.2 8.2 8.6 8.7 8.8 9.0 9.1 8.9 9.1 9.4 9.4 9.1 9.2 9.2 9.5 9.6 9.6 9.5 9.3 8.7 9.0 9.2 9.4 9.5 9.7 9.7
6.5 6.5 6.5 6.5 6.5 6.5 7.0 6.8 6.5 6.7 7.4 7.6 7.5 7.6 7.5 7.8 7.9 8.0 8.2 8.2 8.5 8.6 8.9 9.1 9.0 9.0 9.2 9.4 9.3 9.2 9.1 9.5 9.6 9.6 9.4 9.0 9.1 9.7 9.4 8.2 9.0 9.6 9.6 9.5
6.5 6.5 6.5 6.5 6.5 6.8 7.5 7.2 7.7 7.9 7.5 7.7 7.6 7.9 7.8 7.9 7.9 8.0 8.1 8.3 8.5 8.7 8.9 9.1 9.1 9.1 9.2 9.4 9.4 9.1 9.3 9.6 9.5 9.2 8.8 9.1 9.4 9.1 8.5 9.0 9.3 9.5 9.6 9.5
6.5 7.0 6.5 6.5 6.6 6.6 7.1 7.8 8.0 8.0 7.9 8.1 8.2 8.1 8.2 7.9 8.2 8.1 8.3 8.5 8.6 8.8 8.8 9.2 9.0 8.9 9.0 9.3 9.4 9.4 9.5 9.6 9.3 9.0 8.8 9.2 7.8 7.4 8.9 9.7 9.7 9.5 9.5 9.4
6.7 6.7 6.5 6.5 6.7 7.2 7.6 7.8 8.0 8.1 8.4 8.3 8.3 8.4 8.2 8.2 8.2 8.3 8.3 8.5 8.7 8.7 9.0 9.2 9.0 8.9 9.0 9.3 9.4 9.5 9.6 9.5 9.1 8.9 8.7 8.0 8.2 8.4 9.4 9.6 9.3 9.6 9.4 8.0
7.2 6.5 6.5 6.5 7.0 7.1 7.2 8.0 8.3 8.1 8.2 8.3 8.2 8.2 8.4 8.5 8.3 8.3 8.3 8.7 8.8 8.8 9.0 9.0 9.0 9.0 9.1 9.3 9.4 9.4 9.7 9.5 9.1 8.8 8.8 8.6 8.5 9.2 9.5 9.5 8.8 3.2 3.8 4.2
Wind_Speed
17 14 16 19 16 15 16 12 15 15 13 6 11 17 15 19 16 14 15 15 16 17 18 19 18 18 17 17 16 16 15 15 11 9 9 8 7 7 8 10 10 9 7 6
16 17 18 17 17 6 15 15 17 15 12 8 14 19 16 15 17 14 14 17 18 18 20 19 20 18 17 18 17 16 16 16 12 9 8 8 8 8 9 11 10 9 7 5
17 14 19 16 12 12 15 16 15 16 6 10 15 19 16 8 22 10 15 14 17 19 21 21 22 21 19 19 18 17 17 17 14 12 9 9 9 9 6 7 7 9 8 5
16 17 13 11 13 14 16 12 11 13 13 11 2 8 20 12 13 33 15 16 17 19 20 21 22 22 21 20 19 18 18 18 14 14 12 13 10 9 8 8 8 10 8 7
17 16 14 14 15 12 15 12 11 15 15 14 16 9 15 12 11 8 14 11 11 17 20 22 23 23 22 20 19 17 18 18 17 15 13 11 11 8 8 8 10 8 9 7
17 12 13 16 14 13 8 14 14 14 12 13 16 14 13 9 6 8 8 1 8 14 18 22 21 21 21 18 18 16 19 18 17 16 14 14 12 10 9 10 9 8 6 8
16 19 13 11 11 10 11 11 10 12 11 11 15 5 10 15 9 6 6 3 5 10 16 20 23 22 21 21 18 15 19 19 18 17 15 15 13 11 11 11 9 9 7 6
16 17 19 13 18 14 14 14 10 13 12 13 2 9 1 3 4 3 1 2 4 8 12 19 22 21 21 21 20 19 20 18 18 15 14 14 13 8 8 10 8 7 7 6
12 18 2 12 16 16 16 9 10 14 15 10 14 22 18 15 6 4 5 4 4 5 9 15 19 19 20 20 20 18 19 17 17 17 14 13 10 11 9 12 8 7 9 11
15 12 13 10 8 11 11 9 9 9 4 15 13 14 13 6 4 7 6 6 6 5 6 12 15 17 16 18 17 15 15 17 16 16 14 12 11 9 7 9 9 9 11 13
16 12 13 10 13 16 9 13 12 10 10 11 12 8 11 4 4 3 4 7 8 9 9 7 9 14 15 16 16 17 17 18 17 15 14 12 11 10 8 9 10 11 13 13
16 9 15 15 15 11 15 13 17 11 16 10 11 14 10 2 2 3 2 8 9 9 9 10 8 9 10 13 16 15 17 17 17 16 14 14 13 11 9 11 12 15 12 13
7 9 11 16 10 7 11 16 14 13 14 17 14 13 8 1 6 5 6 10 9 9 9 9 10 11 12 13 12 14 16 16 15 15 14 14 14 13 13 13 12 15 14 12
3 10 12 13 16 11 13 19 16 15 11 13 17 20 19 11 12 11 9 9 11 11 11 11 11 11 11 11 12 13 14 14 15 15 15 15 14 15 14 13 12 13 14 10
4 11 13 14 18 17 17 15 17 19 18 18 17 19 16 14 13 8 8 11 13 13 13 13 13 12 12 12 11 12 13 15 16 16 16 15 15 15 14 13 13 13 11 11
3 8 9 13 14 17 21 21 19 18 19 21 21 21 17 16 13 6 7 11 14 14 15 14 14 14 14 14 14 14 15 16 16 16 16 15 15 15 14 14 12 10 10 10
5 5 8 14 14 17 19 19 20 20 21 18 19 18 16 18 14 8 10 11 15 15 15 16 16 15 14 14 15 15 15 16 16 16 16 15 15 15 14 13 12 11 10 9
7 9 8 9 12 14 12 15 16 18 20 21 21 19 17 17 11 8 8 13 14 16 17 17 15 15 15 15 15 15 16 16 16 16 16 15 15 15 14 13 11 10 9 8
13 11 8 10 11 17 18 13 9 14 18 18 19 19 15 16 3 8 14 12 14 15 16 16 15 16 16 17 17 17 17 16 16 16 16 15 15 15 13 12 11 9 9 7
18 14 11 11 14 18 18 21 5 8 13 20 21 22 12 11 6 9 7 16 13 15 16 17 18 17 17 17 18 18 18 17 16 16 15 15 13 13 12 11 11 8 8 7
10 13 13 13 14 15 14 10 8 11 4 16 16 18 20 15 4 9 4 6 11 15 17 18 18 17 18 19 19 18 18 17 16 16 14 13 13 12 12 11 9 8 8 7
10 8 11 11 16 15 8 5 6 6 8 11 13 16 17 17 19 7 6 5 12 16 18 18 16 16 17 19 19 19 18 17 17 16 15 13 12 10 10 11 9 8 8 7
13 10 8 8 9 3 6 6 5 6 7 10 11 15 17 17 17 7 6 5 10 15 16 16 16 17 17 18 18 19 19 19 17 16 15 14 13 11 11 10 9 7 7 6
11 13 7 12 15 12 11 6 6 5 9 11 11 10 13 16 16 14 6 6 9 13 15 17 18 19 18 18 18 18 19 19 19 17 16 14 12 11 10 7 7 6 6 5
9 8 9 12 16 17 18 10 8 8 12 12 12 13 13 14 16 15 8 8 10 12 15 17 18 18 20 20 18 18 19 19 18 17 15 14 11 11 10 8 5 5 3 2
10 16 12 13 15 14 14 15 13 15 17 16 14 15 14 13 13 14 13 8 10 13 15 16 18 19 20 20 19 19 18 18 17 16 13 11 11 10 9 9 7 16 12 13
Wind_Direction
207 223 232 242 240 273 293 281 303 296 298 254 275 261 243 163 229 196 181 184 189 184 179 170 177 166 167 160 161 166 170 166 171 174 178 168 160 151 152 135 146 140 131 126
223 226 244 251 267 262 267 280 275 289 295 328 284 270 249 234 198 196 202 189 187 184 175 175 174 174 176 169 169 169 170 171 181 180 178 174 160 165 156 144 149 139 143 142
233 223 221 247 263 253 263 268 282 290 264 256 257 275 276 350 350 188 201 209 186 189 181 177 177 180 181 174 174 176 172 175 186 177 170 163 157 152 154 151 156 155 156 154
240 240 253 250 242 257 260 263 284 258 276 270 133 246 242 115 128 279 207 205 200 190 185 182 183 182 186 177 177 177 174 177 182 182 167 175 173 174 178 170 155 159 160 150
232 236 243 237 237 245 262 283 298 283 278 290 275 273 306 184 217 275 170 199 208 195 194 186 189 185 184 174 178 180 175 178 179 183 177 179 185 188 162 165 148 158 159 153
248 249 233 242 246 249 296 274 259 257 260 260 270 272 278 293 209 178 245 133 199 211 200 187 189 186 184 172 175 180 180 180 179 183 187 188 198 179 166 167 173 167 164 160
221 231 222 243 247 233 245 244 254 247 239 252 259 264 275 301 18 20 330 259 233 253 208 192 187 187 183 176 173 177 185 181 179 186 193 189 192 190 178 172 184 174 169 165
224 223 220 184 236 242 205 237 236 253 266 279 132 249 231 70 88 76 210 247 238 238 232 196 190 181 184 175 178 182 186 183 182 184 193 191 189 187 190 188 180 177 174 155
249 236 112 199 219 233 245 238 271 288 285 279 282 297 285 248 172 174 207 187 182 197 207 199 188 181 181 178 184 185 184 183 177 185 189 185 187 188 207 174 156 182 126 124
249 258 229 193 225 250 262 257 219 239 258 266 268 279 272 212 240 147 183 170 148 168 200 190 189 177 185 180 180 181 183 180 182 185 186 182 182 190 187 145 166 129 130 130
235 245 240 173 213 225 197 235 236 261 234 247 269 271 26 48 46 39 165 149 155 160 174 203 193 180 186 175 171 179 185 189 182 185 182 168 174 181 130 148 137 140 136 129
231 234 235 220 238 241 268 220 224 228 236 255 263 267 302 191 251 302 205 163 156 161 161 169 185 184 185 175 183 180 188 195 174 180 171 174 159 139 135 142 143 136 131 142
216 224 241 246 186 206 240 246 253 250 244 241 249 256 255 285 213 203 238 164 167 167 161 163 167 174 175 177 169 176 179 186 165 167 170 157 150 147 146 144 137 137 138 136
338 233 233 235 245 215 215 246 236 231 240 248 249 264 272 228 229 229 193 187 184 179 168 168 164 161 160 160 165 165 169 143 153 164 162 159 155 148 144 138 135 135 143 141
252 241 246 258 272 280 271 214 229 226 240 244 252 258 260 264 268 251 205 190 190 189 180 170 165 159 154 153 153 154 155 159 162 163 162 158 146 139 137 139 143 139 140 139
192 259 263 261 260 261 263 267 265 251 230 244 252 260 266 277 285 270 265 202 202 196 187 180 168 163 163 160 159 156 161 163 163 160 156 148 144 141 139 140 142 141 139 142
251 253 243 255 260 262 254 249 256 261 257 244 252 266 269 270 257 247 258 216 206 198 188 183 173 169 164 163 158 161 161 160 159 155 149 151 146 142 145 148 148 144 147 149
266 242 254 266 277 249 260 265 270 286 257 259 258 256 269 276 280 266 230 217 208 196 187 181 174 168 163 159 159 157 157 157 155 152 154 150 149 149 147 151 144 147 151 156
227 249 262 246 252 258 258 258 243 257 262 267 276 268 259 259 284 257 246 224 205 193 181 176 172 167 161 160 156 157 156 156 156 155 154 153 156 155 151 146 146 152 156 158
222 215 240 242 249 251 264 268 349 294 257 7 350 343 261 266 248 269 293 201 192 175 170 171 167 163 161 161 160 158 157 159 157 157 156 157 150 148 150 146 152 153 156 157
203 218 217 242 254 262 269 343 301 240 302 357 355 346 347 338 347 10 357 170 176 165 166 164 165 167 165 159 161 161 158 160 153 152 149 147 148 149 144 147 148 156 160 157
209 198 220 240 245 254 8 289 297 25 356 359 358 355 344 330 320 332 293 196 169 162 161 164 167 168 160 165 164 160 160 150 152 148 148 147 147 148 149 150 154 161 160 172
260 266 258 234 221 101 81 43 40 4 352 352 353 352 349 336 324 327 293 210 178 167 164 169 171 164 167 168 171 162 156 152 151 150 149 150 152 153 152 157 161 166 177 184
250 244 249 280 264 245 146 299 292 319 331 332 337 342 344 337 325 312 271 226 190 178 173 174 172 167 169 172 172 166 153 154 155 153 153 154 156 156 157 163 168 180 187 199
259 300 285 261 270 283 290 284 330 340 316 315 321 326 327 333 328 314 284 242 212 187 183 184 176 174 173 172 170 155 160 160 158 156 158 159 154 168 162 173 168 197 129 54
253 261 260 259 277 298 299 309 321 313 305 311 312 312 313 311 314 317 297 252 218 197 190 192 183 179 176 173 167 159 165 167 161 161 161 162 156 171 171 168 146 64 58 74